Regional Weather Roundup
Issued by NWS Little Rock, AR

Home | Current Version | Previous Version | Text Only | Print | Product List | Glossary Off
Versions: 1 2 3 4 5 6 7 8 9 10 11 12 13 14 15 16 17 18 19 20 21 22 23 24 25 26 27 28 29 30 31 32 33 34 35 36 37 38 39 40 41 42 43 44 45 46 47 48 49 50

000
ASUS44 KLZK 291105
RWRLZK

WEATHER ROUNDUP FOR ARKANSAS
NATIONAL WEATHER SERVICE LITTLE ROCK AR
600 AM CDT MON JUN 29 2015

NOTE: "FAIR" INDICATES FEW OR NO CLOUDS BELOW 12,000 FEET WITH NO
SIGNIFICANT WEATHER AND/OR OBSTRUCTIONS TO VISIBILITY.

ARZ001-003-010-029-291200-
NORTHWEST ARKANSAS

CITY           SKY/WX    TMP DP  RH WIND       PRES   REMARKS
FAYETTEVILLE   CLEAR     70  62  76 W5        29.95R
FORT SMITH     PTCLDY    71  63  75 SW6       29.92R
HARRISON       CLEAR     73  59  61 W6        29.92R
BENTONVILLE    CLEAR     70  61  73 SW8       29.93F
ROGERS         PTCLDY    70  63  78 SW10      29.93F
SILOAM SPGS    CLEAR     66  57  72 S7        29.94F
HIGHFILL       CLEAR     70  64  81 SW8       29.93F
SPRINGDALE     PTCLDY    72  61  68 SW12      29.96
$$

ARZ004-005-016-291200-
NORTH CENTRAL ARKANSAS

CITY           SKY/WX    TMP DP  RH WIND       PRES   REMARKS
BATESVILLE     PTCLDY    72  64  78 SW7       29.89S
FLIPPIN        CLEAR     66  63  88 CALM      29.87S
MTN HOME       CLEAR     71  62  73 SW3       29.89R
$$

ARZ040-041-291200-
WEST CENTRAL ARKANSAS

CITY           SKY/WX    TMP DP  RH WIND       PRES   REMARKS
MENA           PTCLDY    73  66  78 W5        29.98R
MOUNT IDA      PTCLDY    67  65  93 CALM      29.93R
$$

ARZ009-017-025-026-028-291200-
NORTHEAST ARKANSAS

CITY           SKY/WX    TMP DP  RH WIND       PRES   REMARKS
JONESBORO      CLOUDY    72  69  90 SW10      29.88R
NEWPORT        CLOUDY    74  67  78 SW6       29.90R
WALNUT RIDGE   CLEAR     72  64  78 SW9       29.86S
BLYTHEVILLE    MOCLDY    73  69  87 SW13G20   29.88R
$$

ARZ022-023-033-042-044-291200-
CENTRAL ARKANSAS

CITY           SKY/WX    TMP DP  RH WIND       PRES   REMARKS
LITTLE ROCK    MOCLDY    71  65  81 SW8       29.92S
N LITTLE ROCK    N/A     74  67  79 SW8       29.92S
JACKSONVILLE   CLEAR     70  64  83 VRB1      29.91S
SEARCY         PTCLDY    68  66  93 SE3       29.92S
HOT SPRINGS    PTCLDY    71  65  81 NW3       29.95R
RUSSELLVILLE   PTCLDY    69  67  93 CALM      29.92R
CLINTON        MOCLDY    68  68 100 CALM      29.92R
$$

ARZ036-291200-
EAST ARKANSAS

CITY           SKY/WX    TMP DP  RH WIND       PRES   REMARKS
WEST MEMPHIS   CLOUDY    73  67  81 SW7       29.91R
$$

ARZ050-053-066-070-073-291200-
SOUTHWEST ARKANSAS

CITY           SKY/WX    TMP DP  RH WIND       PRES   REMARKS
ARKADELPHIA    FAIR      67  67 100 CALM      29.95S
CAMDEN         CLEAR     66  63  88 CALM      29.95S FOG
TEXARKANA      CLEAR     70  68  93 SW5       29.96R
EL DORADO      CLEAR     68  66  93 CALM      29.97R
DE QUEEN       PTCLDY    67  66  97 CALM      29.95R
$$

ARZ056-057-069-291200-
SOUTHEAST ARKANSAS

CITY           SKY/WX    TMP DP  RH WIND       PRES   REMARKS
PINE BLUFF     CLEAR     69  64  84 SW5       29.94S
STUTTGART      CLEAR     70  64  83 S6        29.94R
MONTICELLO     CLEAR     73  67  81 SW6       29.95S

$$




USA.gov is the U.S. government's official web portal to all federal, state and local government web resources and services.